Regional Weather Roundup
Issued by NWS Mobile, AL

Current Version | Previous Version | Text Only | Print | Product List | Glossary On
Versions: 1 2 3 4 5 6 7 8 9 10 11 12 13 14 15 16 17 18 19 20 21 22 23 24 25 26 27 28 29 30 31 32 33 34 35 36 37 38 39 40 41 42 43 44 45 46 47 48 49 50
323
ASUS44 KMOB 240912
RWRMOB
REGIONAL WEATHER ROUNDUP
NATIONAL WEATHER SERVICE MOBILE AL
300 AM CST TUE JAN 24 2017

NOTE: "FAIR" INDICATES FEW OR NO CLOUDS BELOW 12,000 FEET WITH NO
      SIGNIFICANT WEATHER AND/OR OBSTRUCTIONS TO VISIBILITY.

  * THESE STATIONS ARE PART OF THE UNIVERSITY OF SOUTH ALABAMA
    MESONET AND ARE NOT UNDER NWS OR FAA QUALITY CONTROL.

ALZ061>064-241000-
COASTAL ALABAMA

CITY           SKY/WX    TMP DP  RH WIND       PRES   REMARKS
MOBILE REG APT CLEAR     46  42  86 NW6       29.91R
BROOKLEY FIELD CLEAR     49  44  83 NW8       29.91R
USA CAMPUS*      N/A     46  43  87 CALM      29.90R
DOG RIVER*       N/A     48  45  87 NW3       30.62R


CITY           SKY/WX    TMP DP  RH WIND       PRES   REMARKS
GULF SHORES    CLEAR     49  46  92 W12       29.89R

$$

ALZ051>060-241000-
INTERIOR SOUTHWEST AND SOUTH CENTRAL ALABAMA

CITY           SKY/WX    TMP DP  RH WIND       PRES   REMARKS
GREENVILLE     MOCLDY    45  39  79 NW8       29.84R
EVERGREEN      CLEAR     44  41  89 N5        29.87R
ATMORE*          N/A     45  43  93 NW6       29.90R
ANDALUSIA/OPP  CLEAR     47  43  86 NW6       29.84R
ANDALUSIA*       N/A     45  43  93 W3        29.84R
FLORALA APT    CLEAR     46  42  86 CALM      29.86R
FLORALA*         N/A     46  43  87 SW5       30.52R

$$

FLZ001>006-241000-
WESTERN FLORIDA PANHANDLE

CITY           SKY/WX    TMP DP  RH WIND       PRES   REMARKS
PENSACOLA      CLEAR     51  44  77 NW10      29.86R
NAS PENSACOLA  CLEAR     50  45  83 NW6       29.87R
MILTON         LGT RAIN  46  43  89 NW6       29.86R
WHTNG S FIELD  CLEAR     48  44  86 NW6       29.87R


CITY           SKY/WX    TMP DP  RH WIND       PRES   REMARKS
JAY*             N/A     46  41  81 CALM      29.88R
DUKE FIELD     CLEAR     48  43  82 NW8       29.85R
CRESTVIEW      CLEAR     49  41  74 NW8       29.86R
VALPARAISO     CLEAR     50  43  79 NW9       29.85S
DESTIN         CLEAR     55  46  71 NW10      29.85S

$$

MSZ076-079-241000-
INTERIOR SOUTHEAST MISSISSIPPI

CITY           SKY/WX    TMP DP  RH WIND       PRES   REMARKS
LEAKESVILLE*   NOT AVBL
AGRICOLA*      NOT AVBL

$$

MARINE OBSERVATIONS

STATION/POSITION TIME  TEMP    WIND        PRES    WAVE
                       AIR SEA DIR/SP/G            HT/PER
                 (UTC) (F)     (DEG/KT/KT) (MB)    (FT/S)
PASCAGOULA       0848   51     350/  8/ 10 1012.5R
PETIT BOIS ISLND 0848   53     360/ 12/ 14 1013.2R
GRAND BAY        0745   52     340/  7     1012.0S
KATRINA CUT      0830           10/ 11     1012.2R
CEDAR POINT      0830   52     360/  7     1011.9R
E DAUPHIN ISLAND 0800   55     340/ 12/ 14 1011.5R
MIDDLE BAY LIGHT 0830   53     340/ 11     1011.9R
USCG MOBILE BAY  0848   49 62  340/  6/  8 1013.1R
STATE DOCKS      0848                      1012.4R
MEAHER PARK      0830   49     320/  7     1012.2R
WEEKS BAY        0745   52                   N/A
FORT MORGAN      0848   55     350/ 13/ 15   N/A
12 S ORANGE BCH  0850   57 64  330/ 14/ 16 1011.7R   3/ 7
PENSACOLA BAY    0848          330/  6/  9 1011.4R
67 S FORT MORGAN 0830   63                 1011.9R

$$

SELECTED LOCATIONS ACROSS THE REGION

CITY           SKY/WX    TMP DP  RH WIND       PRES   REMARKS
NEW ORLEANS    CLEAR     50  47  89 CALM      29.90F
GULFPORT       CLEAR     48  45  89 N3        29.91R
PASCAGOULA AP  CLEAR     48  43  82 N5        29.91R
PASCAGOULA*    NOT AVBL
HATTIESBURG    CLEAR     42  41  96 CALM      29.93R
LAUREL         CLEAR     39  36  87 CALM      29.93R
MERIDIAN       CLEAR     37  37 100 S3        29.90R
JACKSON        PTCLDY    39  37  92 CALM      29.91R
MONTGOMERY     CLOUDY    48  40  73 NW9       29.84S
TROY           CLEAR     45  43  93 W6        29.83S
ASHFORD*         N/A     45  43  93 W3        29.84R
DOTHAN         CLEAR     48  45  89 W8        29.85R
PANAMA CITY    CLEAR     51  46  83 W8        29.83R

$$





USA.gov is the U.S. government's official web portal to all federal, state and local government web resources and services.